TimeMST,TemperatureF,Dew PointF,Humidity,Sea Level PressureIn,VisibilityMPH,Wind Direction,Wind SpeedMPH,Gust SpeedMPH,PrecipitationIn,Events,Conditions,WindDirDegrees,DateUTC
12:53 AM,14.0,7.0,74,29.81,10.0,SSW,4.6,-,N/A,,Clear,210,2013-12-21 07:53:00
1:53 AM,12.0,6.1,77,29.80,10.0,Calm,Calm,-,N/A,,Clear,0,2013-12-21 08:53:00
2:53 AM,12.0,6.1,77,29.80,10.0,WSW,5.8,-,N/A,,Clear,250,2013-12-21 09:53:00
3:53 AM,12.9,8.1,81,29.76,10.0,NW,3.5,-,N/A,,Clear,320,2013-12-21 10:53:00
4:53 AM,7.0,3.0,84,29.79,10.0,Calm,Calm,-,N/A,,Clear,0,2013-12-21 11:53:00
5:53 AM,10.9,7.0,84,29.80,10.0,Calm,Calm,-,N/A,,Clear,0,2013-12-21 12:53:00
6:53 AM,9.0,5.0,84,29.82,10.0,WNW,4.6,-,N/A,,Clear,300,2013-12-21 13:53:00
7:53 AM,10.9,7.0,84,29.80,5.0,NNW,4.6,-,N/A,,Clear,330,2013-12-21 14:53:00
8:53 AM,17.1,10.0,74,29.81,8.0,North,4.6,-,N/A,,Clear,10,2013-12-21 15:53:00
9:53 AM,24.1,15.1,69,29.83,9.0,Calm,Calm,-,N/A,,Clear,0,2013-12-21 16:53:00
10:53 AM,33.1,18.0,54,29.75,10.0,NNE,9.2,-,N/A,,Clear,30,2013-12-21 17:53:00
11:53 AM,36.0,15.1,43,29.74,10.0,NE,10.4,-,N/A,,Clear,50,2013-12-21 18:53:00
12:53 PM,37.9,15.1,39,29.73,10.0,NE,9.2,-,N/A,,Clear,40,2013-12-21 19:53:00
1:53 PM,37.0,15.1,41,29.75,10.0,NE,8.1,-,N/A,,Mostly Cloudy,40,2013-12-21 20:53:00
2:53 PM,36.0,15.1,43,29.78,10.0,NE,9.2,-,N/A,,Overcast,50,2013-12-21 21:53:00
3:53 PM,32.0,14.0,48,29.79,10.0,NE,6.9,-,N/A,,Clear,50,2013-12-21 22:53:00
4:53 PM,25.0,12.0,58,29.84,10.0,NNE,5.8,-,N/A,,Clear,20,2013-12-21 23:53:00
5:53 PM,28.0,14.0,56,29.84,10.0,North,5.8,-,N/A,,Scattered Clouds,350,2013-12-22 00:53:00
6:53 PM,27.0,14.0,58,29.88,10.0,North,3.5,-,N/A,,Mostly Cloudy,350,2013-12-22 01:53:00
7:53 PM,28.0,14.0,56,29.90,10.0,NNW,3.5,-,N/A,,Mostly Cloudy,340,2013-12-22 02:53:00
8:53 PM,23.0,12.9,65,29.94,10.0,NE,9.2,-,N/A,,Clear,40,2013-12-22 03:53:00
9:53 PM,19.0,10.9,71,29.96,10.0,NNE,6.9,-,N/A,,Scattered Clouds,30,2013-12-22 04:53:00
10:53 PM,21.9,12.0,66,29.97,10.0,NNW,9.2,-,N/A,,Overcast,330,2013-12-22 05:53:00
11:53 PM,21.9,12.0,66,29.98,10.0,NNW,4.6,-,N/A,,Overcast,340,2013-12-22 06:53:00